When you browse on this site, cookies collect data to enhance your experience and personalize the content and advertising you see.
Visit our Privacy Policy to learn more. By continuing to use the site, you agree to this use of cookies and data.
  • In Hungary
  • List of Countries
  • For 7 days
  • Water Temperature
  • Weather Map
  • News
  • Weather Widgets
  • user-avatar
    Login

    Hourly Weather Podluzhe

    Today, 23 January, Thursday

    Time Temperature Precipitation Wind Pressure Humidity
    00:00 -4°C° 0 mm 6 mps 739 mmHg 79%
    01:00 -4°C° 0 mm 6 mps 739 mmHg 78%
    02:00 -5°C° 0 mm 6 mps 740 mmHg 77%
    03:00 -6°C° 0 mm 7 mps 740 mmHg 73%
    04:00 -6°C° 0 mm 7 mps 741 mmHg 70%
    05:00 -6°C° 0 mm 8 mps 741 mmHg 67%
    06:00 -6°C° 0 mm 7 mps 742 mmHg 68%
    07:00 -7°C° 0 mm 7 mps 742 mmHg 69%
    08:00 -6°C° 0 mm 6 mps 743 mmHg 71%
    09:00 -6°C° 0 mm 7 mps 744 mmHg 68%
    10:00 -6°C° 0 mm 7 mps 744 mmHg 66%
    11:00 -5°C° 0 mm 8 mps 745 mmHg 63%
    12:00 -4°C° 0 mm 7 mps 745 mmHg 59%
    13:00 -4°C° 0 mm 7 mps 745 mmHg 55%
    14:00 -4°C° 0 mm 7 mps 746 mmHg 51%
    15:00 -5°C° 0 mm 6 mps 746 mmHg 56%
    16:00 -5°C° 0 mm 5 mps 746 mmHg 61%
    17:00 -5°C° 0 mm 5 mps 746 mmHg 66%
    18:00 -4°C° 0 mm 4 mps 746 mmHg 66%
    19:00 -4°C° 0 mm 4 mps 747 mmHg 66%
    20:00 -4°C° 0 mm 4 mps 747 mmHg 66%
    21:00 -4°C° 0 mm 4 mps 747 mmHg 71%
    22:00 -4°C° 0 mm 4 mps 747 mmHg 75%
    23:00 -4°C° 0 mm 4 mps 746 mmHg 80%

    Tomorrow, 24 January, Friday

    Time Temperature Precipitation Wind Pressure Humidity
    00:00 -3°C° 0 mm 4 mps 746 mmHg 83%
    01:00 -3°C° 0 mm 4 mps 746 mmHg 86%
    02:00 -3°C° 0 mm 4 mps 746 mmHg 88%
    03:00 -4°C° 0 mm 5 mps 745 mmHg 88%
    04:00 -4°C° 0 mm 5 mps 744 mmHg 88%
    05:00 -4°C° 0 mm 5 mps 743 mmHg 88%
    06:00 -4°C° 0.2 mm 6 mps 743 mmHg 90%
    07:00 -4°C° 0.2 mm 6 mps 742 mmHg 92%
    08:00 -4°C° 0.2 mm 6 mps 742 mmHg 94%
    09:00 -3°C° 0.3 mm 7 mps 742 mmHg 95%
    10:00 -2°C° 0.3 mm 7 mps 741 mmHg 96%
    11:00 -2°C° 0.3 mm 7 mps 741 mmHg 96%
    12:00 -1°C° 0.1 mm 7 mps 740 mmHg 95%
    13:00 -1°C° 0.1 mm 7 mps 740 mmHg 93%
    14:00 0°C° 0.1 mm 7 mps 740 mmHg 92%
    15:00 0°C° 0 mm 7 mps 739 mmHg 92%
    16:00 0°C° 0 mm 7 mps 739 mmHg 91%
    17:00 0°C° 0 mm 8 mps 738 mmHg 91%
    18:00 0°C° 0 mm 7 mps 739 mmHg 91%
    19:00 0°C° 0 mm 7 mps 739 mmHg 91%
    20:00 0°C° 0 mm 7 mps 739 mmHg 91%
    21:00 0°C° 0 mm 7 mps 739 mmHg 91%
    22:00 0°C° 0 mm 7 mps 739 mmHg 92%
    23:00 0°C° 0 mm 7 mps 738 mmHg 92%

    Day after tomorrow, 25 January, Saturday

    Time Temperature Precipitation Wind Pressure Humidity
    00:00 0°C° 0 mm 7 mps 738 mmHg 92%
    01:00 +1°C° 0 mm 6 mps 738 mmHg 91%
    02:00 +1°C° 0 mm 6 mps 738 mmHg 91%
    03:00 +1°C° 0 mm 6 mps 738 mmHg 91%
    04:00 +1°C° 0 mm 6 mps 738 mmHg 91%
    05:00 -1°C° 0 mm 6 mps 737 mmHg 91%
    06:00 -1°C° 0.1 mm 6 mps 737 mmHg 91%
    07:00 -1°C° 0.1 mm 6 mps 737 mmHg 91%
    08:00 -1°C° 0.1 mm 6 mps 737 mmHg 91%
    09:00 -1°C° 0.1 mm 6 mps 737 mmHg 88%
    10:00 -1°C° 0.1 mm 6 mps 737 mmHg 85%
    11:00 +1°C° 0.1 mm 6 mps 738 mmHg 83%
    12:00 0°C° 0 mm 7 mps 738 mmHg 80%
    13:00 0°C° 0 mm 7 mps 738 mmHg 78%
    14:00 0°C° 0 mm 7 mps 738 mmHg 76%
    15:00 -1°C° 0 mm 6 mps 738 mmHg 78%
    16:00 -2°C° 0 mm 6 mps 738 mmHg 80%
    17:00 -2°C° 0 mm 6 mps 738 mmHg 82%
    18:00 -2°C° 0 mm 6 mps 738 mmHg 82%
    19:00 -2°C° 0 mm 6 mps 739 mmHg 82%
    20:00 -3°C° 0 mm 6 mps 739 mmHg 82%
    21:00 -3°C° 0 mm 6 mps 740 mmHg 83%
    22:00 -2°C° 0 mm 5 mps 740 mmHg 83%
    23:00 -2°C° 0 mm 5 mps 741 mmHg 84%

    26 January, Sunday

    Time Temperature Precipitation Wind Pressure Humidity
    00:00 -4°C° 0 mm 5 mps 741 mmHg 83%
    01:00 -4°C° 0 mm 5 mps 742 mmHg 82%
    02:00 -4°C° 0 mm 5 mps 742 mmHg 81%
    03:00 -4°C° 0 mm 5 mps 743 mmHg 82%
    04:00 -4°C° 0 mm 5 mps 743 mmHg 83%
    05:00 -4°C° 0 mm 4 mps 744 mmHg 84%
    06:00 -4°C° 0 mm 4 mps 745 mmHg 84%
    07:00 -4°C° 0 mm 3 mps 745 mmHg 85%
    08:00 -4°C° 0 mm 3 mps 746 mmHg 85%
    09:00 -2°C° 0 mm 3 mps 747 mmHg 81%
    10:00 -2°C° 0 mm 3 mps 747 mmHg 77%
    11:00 -1°C° 0 mm 3 mps 748 mmHg 73%
    12:00 -1°C° 0 mm 3 mps 748 mmHg 72%
    13:00 0°C° 0 mm 3 mps 748 mmHg 72%
    14:00 0°C° 0 mm 3 mps 748 mmHg 71%
    15:00 -1°C° 0 mm 3 mps 748 mmHg 74%
    16:00 -1°C° 0 mm 2 mps 748 mmHg 78%
    17:00 -2°C° 0 mm 2 mps 748 mmHg 82%
    18:00 -2°C° 0 mm 2 mps 749 mmHg 83%
    19:00 -2°C° 0 mm 3 mps 749 mmHg 84%
    20:00 -2°C° 0 mm 3 mps 749 mmHg 85%
    21:00 -2°C° 0 mm 3 mps 749 mmHg 87%
    22:00 -1°C° 0 mm 3 mps 749 mmHg 89%
    23:00 -2°C° 0 mm 4 mps 749 mmHg 90%

    27 January, Monday

    Time Temperature Precipitation Wind Pressure Humidity
    00:00 -2°C° 0 mm 4 mps 749 mmHg 89%
    01:00 -1°C° 0 mm 3 mps 749 mmHg 87%
    02:00 -1°C° 0 mm 3 mps 749 mmHg 86%
    03:00 -1°C° 0 mm 4 mps 748 mmHg 85%
    04:00 -1°C° 0 mm 4 mps 748 mmHg 85%
    05:00 -1°C° 0 mm 4 mps 748 mmHg 84%
    06:00 -1°C° 0 mm 4 mps 748 mmHg 85%
    07:00 -2°C° 0 mm 4 mps 747 mmHg 86%
    08:00 -2°C° 0 mm 4 mps 747 mmHg 87%
    09:00 -1°C° 0 mm 4 mps 747 mmHg 86%
    10:00 -1°C° 0 mm 4 mps 747 mmHg 85%
    11:00 -1°C° 0 mm 4 mps 747 mmHg 84%
    12:00 -1°C° 0 mm 4 mps 746 mmHg 88%
    13:00 -1°C° 0 mm 4 mps 746 mmHg 91%
    14:00 -1°C° 0 mm 5 mps 745 mmHg 94%
    15:00 -1°C° 0.1 mm 4 mps 745 mmHg 95%
    16:00 -1°C° 0.1 mm 4 mps 744 mmHg 96%
    17:00 -1°C° 0.1 mm 4 mps 744 mmHg 97%
    18:00 -1°C° 0.1 mm 4 mps 743 mmHg 97%
    19:00 -1°C° 0.1 mm 5 mps 743 mmHg 97%
    20:00 -1°C° 0.1 mm 5 mps 742 mmHg 96%
    21:00 -1°C° 0.1 mm 5 mps 742 mmHg 97%
    22:00 -1°C° 0.1 mm 5 mps 742 mmHg 97%
    23:00 -1°C° 0.1 mm 5 mps 742 mmHg 97%

    28 January, Tuesday

    Time Temperature Precipitation Wind Pressure Humidity
    00:00 -1°C° 0.1 mm 4 mps 741 mmHg 96%
    01:00 -1°C° 0.1 mm 4 mps 741 mmHg 94%
    02:00 -1°C° 0.1 mm 4 mps 741 mmHg 93%
    03:00 -1°C° 0.3 mm 4 mps 741 mmHg 94%
    04:00 0°C° 0.3 mm 5 mps 740 mmHg 96%
    05:00 0°C° 0.3 mm 5 mps 740 mmHg 97%
    06:00 0°C° 0.2 mm 5 mps 740 mmHg 94%
    07:00 0°C° 0.2 mm 5 mps 741 mmHg 90%
    08:00 -1°C° 0.2 mm 5 mps 741 mmHg 87%
    09:00 -1°C° 0 mm 5 mps 741 mmHg 85%
    10:00 0°C° 0 mm 5 mps 742 mmHg 84%
    11:00 0°C° 0 mm 5 mps 742 mmHg 82%
    12:00 0°C° 0 mm 4 mps 742 mmHg 82%
    13:00 0°C° 0 mm 4 mps 742 mmHg 81%
    14:00 0°C° 0 mm 4 mps 742 mmHg 81%
    15:00 0°C° 0 mm 3 mps 743 mmHg 84%
    16:00 0°C° 0 mm 3 mps 743 mmHg 88%
    17:00 -1°C° 0 mm 2 mps 743 mmHg 91%
    18:00 -1°C° 0 mm 3 mps 743 mmHg 91%
    19:00 -1°C° 0 mm 3 mps 743 mmHg 91%
    20:00 -1°C° 0 mm 3 mps 743 mmHg 90%
    21:00 -2°C° 0 mm 4 mps 742 mmHg 90%
    22:00 -1°C° 0 mm 4 mps 742 mmHg 90%
    23:00 -1°C° 0 mm 5 mps 742 mmHg 90%
    Show more